Starlink 32841

operational
NORAD ID: 62865 Int'l Des: 2025-022 Owner: SPXS Country: US Constellation: starlink
LEOCIRCULAR

Starlink 32841について

説明を読み込み中...

リアルタイム位置

3D地球を読み込み中...

次回通過

高度履歴

Altitude vs Time

uPlot chart will show altitude changes over time

軌道要素

1 62865U 25022M 25305.56600065 .00043459 00000-0 14696-2 0 9994
2 62865 53.1615 4.7510 0000682 85.5783 274.5296 15.30227798 42273
Epoch: Nov 1, 2025 • Age: 23 hours

現在のステータス

高度 477.3 km
速度 7.63 km/s
衛星直下点 35.76°N, 75.71°W
打ち上げ日 Feb 2, 2025
運用期間 0.7 years
タイプ internet

技術仕様

分類 Payload
質量 730.00 kg
乾燥質量 700.00 kg
総質量 730.00 kg
長さ 0.30 m
直径 4.10 m
スパン 29.00 m
形状 Box + pan
製造者 SPXS
バスタイプ Starlink V2M
フェーズステータス In Orbit
所有者/国 SPXS/US

大規模コンステレーション

Loading constellations...